Weather History for Sexton Summit, OR

Change the Weather History Date:

Tuesday, November 27, 2012

  Actual Average Record
Temperature  
Mean Temperature 44 °F -  
Max Temperature 46 °F 40 °F 61 °F (2002)
Min Temperature 42 °F 33 °F 24 °F (2006)
Degree Days  
Heating Degree Days 21    
Moisture  
Dew Point 30 °F    
Average Humidity 59    
Maximum Humidity 68    
Minimum Humidity 54    
Precipitation  
Precipitation 0.00 in - - ()
Sea Level Pressure  
Sea Level Pressure 29.92 in    
Wind  
Wind Speed 11 mph (SE)    
Max Wind Speed 21 mph    
Max Gust Speed 31 mph    
Visibility 10 miles    
Events      
Averages and records for this station are not official NWS values.
T = Trace of Precipitation, MM = Missing Value Source: NWS Daily Summary

Daily Weather History Graph

Daily Weather History Graph

Search for Another Location

Airport:

Trip Planner

Search our weather history database for the weather conditions in past years. The results will help you decide how hot, cold, wet, or windy it might be!

Date:

Astronomy

Nov. 27, 2012 Rise Set
Actual Time 7:19 AM PST 4:42 PM PST
Civil Twilight 6:48 AM PST 5:13 PM PST
Nautical Twilight 6:13 AM PST 5:48 PM PST
Astronomical Twilight 5:39 AM PST 6:22 PM PST
Moon 4:17 PM PST (11/27) 6:29 AM PST (11/27)
Length of Visible Light 10h 24m
Length of Day
9h 22m
Waxing Gibbous, 99% of the Moon is Illuminated
Nov 27
Waxing Gibbous
Nov 28
Full
Dec 6
Last Quarter
Dec 13
New
Dec 19
First Quarter

Hourly Weather History & Observations

Time (PST) Temp. Windchill Dew Point Humidity Pressure Visibility Wind Dir Wind Speed Gust Speed Precip Events Conditions
12:56 AM 44.1 °F 38.6 °F 34.0 °F 68% 29.99 in 10.0 mi SE 10.4 mph - N/A   Clear
1:56 AM 44.1 °F 39.0 °F 33.1 °F 65% 29.98 in 10.0 mi SE 9.2 mph - N/A   Clear
2:56 AM 45.0 °F 40.1 °F 33.1 °F 63% 29.98 in 10.0 mi SSE 9.2 mph - N/A   Clear
3:56 AM 45.0 °F 40.6 °F 32.0 °F 60% 29.98 in 10.0 mi SSE 8.1 mph - N/A   Clear
4:56 AM 44.1 °F 40.1 °F 30.0 °F 58% 29.99 in 10.0 mi SSE 6.9 mph - N/A   Clear
5:56 AM 44.1 °F 40.1 °F 28.9 °F 55% 29.99 in 10.0 mi SSE 6.9 mph - N/A   Clear
6:56 AM 44.1 °F 39.0 °F 30.0 °F 58% 30.00 in 10.0 mi SE 9.2 mph - N/A   Clear
7:56 AM 43.0 °F 37.2 °F 28.9 °F 58% 29.99 in 10.0 mi SE 10.4 mph - N/A   Clear
8:56 AM 43.0 °F 37.2 °F 28.9 °F 58% 29.99 in 10.0 mi SE 10.4 mph - N/A   Clear
9:56 AM 44.1 °F 37.7 °F 28.9 °F 55% 29.99 in 10.0 mi SE 12.7 mph - N/A   Clear
10:56 AM 43.0 °F 36.0 °F 30.0 °F 60% 29.98 in 10.0 mi ESE 13.8 mph - N/A   Clear
11:56 AM 45.0 °F 38.9 °F 30.9 °F 58% 29.95 in 10.0 mi ESE 12.7 mph - N/A   Clear
12:56 PM 44.1 °F 37.1 °F 30.9 °F 60% 29.92 in 10.0 mi ESE 15.0 mph 20.7 mph N/A   Clear
1:56 PM 45.0 °F 38.5 °F 30.0 °F 56% 29.90 in 10.0 mi ESE 13.8 mph - N/A   Clear
2:56 PM 46.0 °F 39.9 °F 30.0 °F 54% 29.88 in 10.0 mi ESE 13.8 mph 23.0 mph N/A   Clear
3:56 PM 45.0 °F 38.2 °F 30.0 °F 56% 29.88 in 10.0 mi ESE 15.0 mph 23.0 mph N/A   Clear
4:56 PM 44.1 °F 37.1 °F 30.9 °F 60% 29.88 in 10.0 mi ESE 15.0 mph 21.9 mph N/A   Clear
5:56 PM 45.0 °F 39.3 °F 30.0 °F 56% 29.87 in 10.0 mi ESE 11.5 mph 20.7 mph N/A   Clear
6:56 PM 43.0 °F 36.4 °F 30.0 °F 60% 29.86 in 10.0 mi ESE 12.7 mph - N/A   Clear
7:56 PM 43.0 °F 36.4 °F 30.0 °F 60% 29.86 in 10.0 mi ESE 12.7 mph - N/A   Clear
8:56 PM 42.1 °F 34.5 °F 30.0 °F 62% 29.84 in 10.0 mi ESE 15.0 mph 27.6 mph N/A   Clear
9:56 PM 43.0 °F 34.2 °F 30.0 °F 60% 29.82 in 10.0 mi ESE 20.7 mph 31.1 mph N/A   Clear
10:56 PM 42.1 °F 33.9 °F 30.0 °F 62% 29.83 in 10.0 mi SE 17.3 mph 28.8 mph N/A   Clear
11:56 PM 42.1 °F 33.9 °F 30.0 °F 62% 29.80 in 10.0 mi ESE 17.3 mph 31.1 mph N/A   Scattered Clouds